www.pogodaiklimat.ru

Погода и климат >> Архив погоды >> Казахстан >> Жосалы


АРХИВ ПОГОДЫ в Жосалы

Время (UTC), дата Ветер
(напр.,м/с)
 
Видим.   Явления Облачность Т
(С)
Тd
(С)
f
(%)
Тe
(С)
Тes
(С)
Комфортность P
(гПа)
Po
(гПа)
Тmin
(С)
Tmax
(С)
R
(мм)
R24
(мм)
S
(см)
03 14.09 СВ 8 50 км 6/0
[Ac trans Ci]
+15.7 +1.3 38 +14 +14 1018.7 1006.5
06 14.09 СВ 5 50 км 8/5 600 м
[Cb calv Ac cuf Ci]
+21.7 +2.1 27 +21 +23 комфорт 1018.2 1006.2 +13.0
09 14.09 С 5 50 км 6/3 600 м
[Cb calv Ac cast]
+26.5 +1.1 19 +25 +27 комфорт 1016.4 1004.6
12 14.09 С 4 50 км 6/4 1000 м
[Cu med, cong Ac cast]
+27.0 +0.2 17 +25 +26 комфорт 1015.4 1003.6
15 14.09 СВ 7 н/о 8/4 1000 м
[Cu med, cong Ac cuf]
+22.7 +0.6 23 +22 +22 комфорт 1016.1 1004.1 +27.9
18 14.09 З 5 н/о {ливн. осадки} 8/8 600 м
[Cb calv]
+21.5 +3.0 30 +22 +22 комфорт 1016.4 1004.4 +27.9
21 14.09 СЗ 6 н/о {ливн. осадки} 8/6 600 м
[Cb calv Ac cuf]
+20.4 +4.0 34 +21 +21 комфорт 1015.8 1003.7
00 15.09 С 8 н/о {ливн. осадки} 9/8 600 м
[Cb calv Ac cuf Ci]
+19.6 +5.1 39 +20 +20 1015.0 1002.9
03 15.09 С 9 50 км 8/6 600 м
[Cb calv Ac cuf]
+19.1 +4.0 37 +19 +19 1016.0 1003.9
06 15.09 СЗ 12-16
{16}
50 км 8/4 600 м
[Cb calv Ac cuf Ci sp]
+23.3 +3.2 27 +23 +23 комфорт 1016.6 1004.7 +18.6 0.0
09 15.09 СЗ 7
{16}
50 км 8/8 1000 м
[Cu med, cong]
+26.7 +0.9 19 +25 +26 комфорт 1015.7 1003.9
12 15.09 СВ 6
{24}
50 км {ливн. осадки} 8/8 600 м
[Cb calv]
+27.2 +0.6 18 +25 +25 комфорт 1015.9 1004.1
15 15.09 С 4 н/о 4/4 600 м
[Sc diur, vesp]
+22.1 +2.7 28 +22 +22 комфорт 1017.4 1005.4 +28.5
18 15.09 З 2 н/о 3/0
[Ac cast]
+15.5 +4.1 47 +16 +16 1017.9 1005.7 +28.5 0.0
21 15.09 З 1 н/о ясно +13.0 +3.6 53 +13 +13 1017.8 1005.4
00 16.09 З 2 н/о 3/0
[Ci sp]
+11.8 +2.9 54 +11 +11 1018.0 1005.6
03 16.09 З 2 50 км 8/4 600 м
[Sc diur, vesp Ac cast Ci sp]
+12.4 +2.9 52 +12 +12 1018.6 1006.2
06 16.09 З 2 50 км 8/4 600 м
[Sc diur, vesp Ac cast Ci sp]
+22.0 +0.4 24 +21 +25 комфорт 1018.3 1006.3 +10.8
09 16.09 З 2 50 км 8/8 1000 м
[Cu med, cong Ci sp]
+27.8 +0.4 17 +26 +28 жарко 1017.0 1005.3
12 16.09 З 7 50 км 8/6 1000 м
[Cu med, cong Ci sp]
+26.7 -1.7 15 +24 +25 комфорт 1016.6 1004.8
15 16.09 ЮЗ 4 н/о 4/0
[Ci sp]
+21.8 +2.3 28 +22 +22 комфорт 1017.5 1005.5 +29.4
18 16.09 Ю 2 н/о 6/0
[Ci sp]
+16.5 +1.3 36 +17 +17 1018.2 1006.0 +29.4
21 16.09 штиль 0 н/о ясно +13.0 +2.9 50 +13 +13 1018.3 1005.9
00 17.09 штиль 0 н/о ясно +10.8 +1.9 54 +11 +11 1019.0 1006.5
03 17.09 штиль 0 50 км ясно +12.5 +3.2 53 +12 +14 1019.8 1007.4
06 17.09 ЮЗ 6 50 км ясно +25.9 +3.2 23 +25 +28 комфорт 1019.5 1007.6 +9.6
09 17.09 ЮЗ 8 50 км 4/0
[Ci]
+29.2 0.0 15 +27 +28 жарко 1018.2 1006.5
12 17.09 ЮЗ 8 50 км 6/0
[Ci]
+29.4 +0.2 15 +27 +27 жарко 1016.9 1005.2
15 17.09 ЮВ 5 н/о 3/0
[Ci]
+22.7 +3.2 28 +23 +23 комфорт 1016.8 1004.8 +30.5
18 17.09 ЮВ 6 н/о ясно +19.0 +2.7 34 +19 +19 1016.7 1004.6 +30.5
21 17.09 ЮВ 4 н/о ясно +17.3 +4.5 43 +17 +17 1015.9 1003.8
00 18.09 В 3 н/о 4/0
[Ac cast]
+14.5 +4.6 51 +14 +14 1015.1 1002.8
03 18.09 В 2 50 км 3/0
[Ac cast]
+12.6 +2.9 52 +12 +13 1014.9 1002.5
06 18.09 Ю 4 50 км 3/0
[Ac cast]
+26.6 +2.5 21 +25 +30 комфорт 1013.2 1001.4 +11.0
09 18.09 Ю 6 50 км 4/0
[Ci sp]
+29.6 -1.2 13 +27 +30 жарко 1010.7 999.1
12 18.09 Ю 8 50 км 6/4 1000 м
[Cu med, cong Ci sp]
+25.8 +1.9 21 +24 +25 комфорт 1009.7 997.9
15 18.09 В 3 н/о 8/5 600 м
[Sc diur, vesp Ac cast]
+24.1 +3.4 26 +23 +23 комфорт 1009.0 997.2 +30.4
18 18.09 В 2 н/о 6/3 600 м
[Sc Ac trans]
+22.0 +3.6 30 +22 +22 комфорт 1009.2 997.3 +30.4
21 18.09 ЮЗ 3 н/о ясно +17.4 +4.0 41 +17 +17 1009.7 997.6
00 19.09 З 2 н/о ясно +14.0 +3.6 49 +14 +14 1011.2 999.0
03 19.09 З 4 50 км ясно +13.8 +3.6 50 +13 +13 1013.4 1001.2
06 19.09 СЗ 6 50 км ясно +26.2 +3.0 22 +25 +28 комфорт 1014.8 1003.0 +11.9
09 19.09 З 9 50 км ясно +30.3 +6.1 22 +29 +30 жарко 1014.7 1003.0
12 19.09 З 12-15
{15}
50 км ясно +29.9 +5.3 21 +28 +28 жарко 1014.8 1003.1
15 19.09 З 4
{15}
н/о ясно +24.5 +5.5 29 +24 +24 комфорт 1015.9 1004.0 +32.1
18 19.09 ЮЗ 3 н/о ясно +17.7 +5.3 44 +18 +18 1017.0 1004.9 +32.1
21 19.09 ЮЗ 2 н/о ясно +15.0 +6.5 57 +15 +15 1017.2 1005.0
00 20.09 З 1 н/о ясно +12.4 +4.5 59 +13 +13 1017.8 1005.4
03 20.09 штиль 0 50 км 4/0
[Ci sp]
+14.1 +5.9 58 +14 +15 1018.1 1005.8
06 20.09 Ю 4 50 км 4/0
[Ci fib]
+26.1 +7.8 31 +26 +31 жарко 1018.1 1006.3 +12.0
09 20.09 ЮЗ 2 50 км 6/0
[Ci]
+30.3 +5.5 21 +29 +37 жарко 1017.3 1005.6
12 20.09 З 5 50 км ясно +30.6 +5.1 20 +29 +30 жарко 1016.4 1004.7
15 20.09 С 5 н/о ясно +25.2 +7.4 32 +25 +25 комфорт 1016.9 1005.1 +31.5
18 20.09 СВ 6 н/о ясно +20.7 +4.1 34 +21 +21 комфорт 1017.6 1005.5 +31.5
21 20.09 В 6 н/о ясно +18.7 +4.0 38 +18 +18 1016.6 1004.5

 

Местоположение метеостанции Жосалы (Кызылординская область, Казахстан): широта 45.50 долгота 64.08 высота над уровнем моря 103 м.

В архиве по умолчанию представлена погода в Жосалы за последнюю неделю. Архивные данные за месяц целиком и за предыдущие месяцы, начиная с января 2011 года, Вы можете получить, выбрав интересующий диапазон дат из раскрывающегося списка и нажав кнопку "Ввод!".


*Определитесь, кто Вы:
робот инопланетянин человек

Внимание! Время в таблицах - всемирное. Для получения местного времени необходимо прибавить поправку, которая равна 6 ч.

Смотрите также архив погоды в соседних городах и на ближайших метеорологических станциях:

Погода в Акае (Кызылординская область, Казахстан) (64 км)
Погода в Жалагаше (Кызылординская область, Казахстан) (66 км)
Погода в Караке (Кызылординская область, Казахстан) (99 км)
Погода в Кызылорде (Кызылординская область, Казахстан) (133 км)
Погода в Тасбугете (Кызылординская область, Казахстан) (140 км)
Погода в Казалинске (Кызылординская область, Казахстан) (155 км)
Погода в Ширик-Рабате (Кызылординская область, Казахстан) (184 км)
Погода в Каукее (Кызылординская область, Казахстан) (189 км)
Погода в Акбакае (Жамбылская область, Казахстан) (228 км)
Погода в Кульжамбае (Карагандинская область, Казахстан) (232 км)

Пояснения к столбцам:

Ветер - указаны скорость ветра в м/с - средняя за 10 мин, порывы в срок и между сроками (в фигурных скобках) и направление, откуда дует ветер: С - северный, СВ - северо-восточный, В - восточный, ЮВ - юго-восточный, Ю - южный, ЮЗ - юго-западный, З - западный, СЗ - северо-западный.
Видимость - горизонтальная дальность видимости в метрах или километрах. При видимости от 1 до 10 км при отсутствии осадков обычно наблюдается дымка, при ухудшении видимости до 1 км и менее - туман. В сухую погоду видимость может ухудшаться дымом, пылью или мглою.
Явления - указаны атмосферные явления, наблюдавшиеся в срок или в последний час перед сроком; фигурными скобками обозначены явления, наблюдавшиеся между сроками (за 1-3 часа до срока); квадратными скобками обозначены град или гололедные отложения с указанием их диаметра в мм.
Облачность - указаны через наклонную черту общая и нижняя облачность в баллах и высота нижней границы облаков в метрах; квадратными скобками обозначены формы облаков: Ci - перистые, Cs - перисто-слоистые, Cc - перисто-кучевые, Ac - высококучевые, As - высокослоистые, Sc - слоисто-кучевые, Ns - слоисто-дождевые, Cu - кучевые, Cb - кучево-дождевые. Подробнее классификацию облаков см. в Атласе облаков (PDF).
T - Температура воздуха - температура, измеренная на высоте 2 м над землей.
Td - Температура точки росы - температура, при понижении до которой содержащийся в воздухе водяной пар достигнет насыщения.
f - Относительная влажность воздуха - влажноcть воздуха, измеренная на высоте 2 м над землей.
Te - Эффективная температура - температура, которую ощущает одетый по сезону человек в тени. Характеристика душности погоды. При расчете учитывается влияние влажности воздуха и скорости ветра на теплоощущения человека.
Tes - Эффективная температура на солнце - температура, которую ощущает человек, с поправкой на солнечный нагрев. Характеристика знойности погоды. Зависит от высоты солнца над горизонтом, облачности и скорости ветра. Ночью, в пасмурную погоду, а также при ветре 12 м/с и более поправка равна нулю.
P - Атмосферное давление - приведенное к уровню моря атмосферное давление.
Po - Атмосферное давление - измеренное на уровне метеостанции атмосферное давление.
Tmin - Минимальная температура - минимум температуры воздуха на высоте 2 м над землей.
Tmax - Максимальная температура - максимум температуры воздуха на высоте 2 м над землей.
R - Количество осадков - Количество выпавших осадков за период времени, мм. При наведении курсора мыши на число - период времени, за который выпало указанное количество осадков.
R24 - Количество осадков - Количество выпавших осадков за 24 часа, мм.
S - Снежный покров - Высота снежного покрова, см. При наведении курсора мыши на число - состояние снежного покрова и степень покрытия местности в баллах.